Weather History for Newberry, MI

Change the Weather History Date:

Sunday, August 25, 2013

  Actual Average Record
Temperature  
Mean Temperature 71 °F -  
Max Temperature 79 °F 73 °F 88 °F (1929)
Min Temperature 63 °F 52 °F 36 °F (1913)
Cooling Degree Days 6    
Growing Degree Days 21 (Base 50)    
Moisture  
Dew Point 64 °F    
Average Humidity 75    
Maximum Humidity 87    
Minimum Humidity 63    
Precipitation  
Precipitation 0.00 in - - ()
Sea Level Pressure  
Sea Level Pressure 30.03 in    
Wind  
Wind Speed 12 mph (SSW)    
Max Wind Speed 23 mph    
Max Gust Speed 33 mph    
Visibility 10 miles    
Events Rain    
Averages and records for this station are not official NWS values.
T = Trace of Precipitation, MM = Missing Value Source: NWS Daily Summary

Daily Weather History Graph

Daily Weather History Graph

Search for Another Location

Airport:

Trip Planner

Search our weather history database for the weather conditions in past years. The results will help you decide how hot, cold, wet, or windy it might be!

Date:

Astronomy

Aug. 25, 2013 Rise Set
Actual Time 6:53 AM EDT 8:33 PM EDT
Civil Twilight 6:21 AM EDT 9:04 PM EDT
Nautical Twilight 5:43 AM EDT 9:43 PM EDT
Astronomical Twilight 5:01 AM EDT 10:24 PM EDT
Moon 10:42 PM EDT (8/25) 12:15 PM EDT (8/25)
Length of Visible Light 14h 42m
Length of Day
13h 39m
Waning Gibbous, 76% of the Moon is Illuminated
Aug 25
Waning Gibbous
Aug 28
Last Quarter
Sep 5
New
Sep 12
First Quarter
Sep 19
Full

Hourly Weather History & Observations

Time (EDT) Temp. Dew Point Humidity Pressure Visibility Wind Dir Wind Speed Gust Speed Precip Events Conditions
12:14 AM 63.9 °F 53.6 °F 69% 30.17 in 10.0 mi South 8.1 mph - N/A   Clear
12:35 AM 64.8 °F 53.6 °F 67% 30.16 in 10.0 mi South 8.1 mph - N/A   Clear
12:55 AM 65.5 °F 53.4 °F 65% 30.16 in 10.0 mi South 11.5 mph - N/A   Clear
1:14 AM 66.2 °F 53.2 °F 63% 30.16 in 10.0 mi South 10.4 mph - N/A   Clear
1:34 AM 66.2 °F 53.1 °F 63% 30.15 in 10.0 mi South 11.5 mph 17.3 mph N/A   Clear
1:54 AM 66.2 °F 53.6 °F 64% 30.14 in 10.0 mi South 9.2 mph - N/A   Clear
2:15 AM 66.4 °F 54.5 °F 66% 30.14 in 10.0 mi South 10.4 mph 16.1 mph N/A   Clear
2:34 AM 66.7 °F 55.0 °F 66% 30.13 in 10.0 mi South 10.4 mph 17.3 mph N/A   Clear
2:54 AM 66.6 °F 56.1 °F 69% 30.14 in 10.0 mi SSW 11.5 mph 18.4 mph N/A   Clear
3:15 AM 66.2 °F 57.0 °F 72% 30.14 in 10.0 mi South 11.5 mph - N/A   Clear
3:34 AM 66.0 °F 57.7 °F 75% 30.13 in 10.0 mi South 13.8 mph 18.4 mph N/A   Clear
3:55 AM 65.8 °F 58.5 °F 77% 30.13 in 10.0 mi South 11.5 mph - N/A   Clear
4:14 AM 66.0 °F 58.5 °F 77% 30.12 in 10.0 mi South 11.5 mph 18.4 mph N/A   Scattered Clouds
4:34 AM 66.6 °F 59.0 °F 77% 30.11 in 10.0 mi South 10.4 mph - N/A   Scattered Clouds
4:55 AM 66.9 °F 59.0 °F 76% 30.11 in 10.0 mi South 11.5 mph 18.4 mph N/A   Scattered Clouds
5:14 AM 67.1 °F 59.2 °F 76% 30.11 in 10.0 mi SSW 12.7 mph 20.7 mph N/A   Clear
5:35 AM 67.1 °F 59.4 °F 76% 30.11 in 10.0 mi South 12.7 mph - N/A   Scattered Clouds
5:55 AM 67.3 °F 59.9 °F 77% 30.09 in 10.0 mi South 15.0 mph 23.0 mph N/A   Overcast
6:14 AM 67.5 °F 59.9 °F 77% 30.08 in 10.0 mi SSW 12.7 mph 21.9 mph N/A   Mostly Cloudy
6:35 AM 67.5 °F 60.3 °F 78% 30.08 in 10.0 mi South 15.0 mph 23.0 mph N/A   Scattered Clouds
6:55 AM 68.0 °F 60.8 °F 78% 30.09 in 10.0 mi SSW 13.8 mph 21.9 mph N/A   Scattered Clouds
7:14 AM 68.2 °F 61.2 °F 78% 30.08 in 10.0 mi South 13.8 mph 21.9 mph N/A   Scattered Clouds
7:35 AM 68.9 °F 61.7 °F 78% 30.07 in 10.0 mi South 15.0 mph 24.2 mph N/A   Mostly Cloudy
7:55 AM 69.1 °F 61.9 °F 78% 30.06 in 10.0 mi SSW 20.7 mph 26.5 mph N/A   Scattered Clouds
8:14 AM 69.8 °F 61.9 °F 76% 30.06 in 10.0 mi SSW 19.6 mph 27.6 mph N/A   Scattered Clouds
8:35 AM 70.0 °F 62.1 °F 76% 30.05 in 10.0 mi SSW 23.0 mph 29.9 mph N/A   Mostly Cloudy
8:54 AM 70.7 °F 62.6 °F 75% 30.04 in 10.0 mi SSW 21.9 mph 31.1 mph N/A   Scattered Clouds
9:14 AM 71.1 °F 63.0 °F 75% 30.03 in 10.0 mi SSW 23.0 mph 31.1 mph N/A   Scattered Clouds
9:35 AM 70.9 °F 63.3 °F 77% 30.02 in 10.0 mi SW 17.3 mph 28.8 mph N/A   Overcast
9:54 AM 72.1 °F 63.9 °F 75% 30.03 in 10.0 mi SW 17.3 mph 27.6 mph N/A   Overcast
10:15 AM 71.6 °F 63.9 °F 76% 30.03 in 10.0 mi SW 18.4 mph 26.5 mph N/A   Overcast
10:35 AM 71.1 °F 64.0 °F 78% 30.03 in 10.0 mi SW 18.4 mph 25.3 mph N/A   Scattered Clouds
10:54 AM 70.9 °F 63.9 °F 78% 30.02 in 10.0 mi SSW 18.4 mph 26.5 mph N/A   Clear
11:15 AM 71.2 °F 64.2 °F 78% 30.01 in 10.0 mi SSW 19.6 mph 25.3 mph N/A   Clear
11:35 AM 72.9 °F 65.1 °F 77% 30.00 in 10.0 mi SW 20.7 mph 33.4 mph N/A   Clear
11:54 AM 75.6 °F 65.8 °F 72% 30.01 in 10.0 mi SW 16.1 mph 26.5 mph N/A   Clear
12:15 PM 75.6 °F 66.4 °F 73% 30.02 in 10.0 mi SW 15.0 mph 25.3 mph N/A   Clear
12:35 PM 76.5 °F 66.4 °F 71% 30.02 in 10.0 mi SW 17.3 mph - N/A   Clear
12:54 PM 75.2 °F 66.4 °F 74% 30.01 in 10.0 mi SSW 13.8 mph - N/A   Clear
1:15 PM 75.6 °F 66.7 °F 74% 30.01 in 10.0 mi SSW 11.5 mph 19.6 mph N/A   Clear
1:34 PM 75.7 °F 67.1 °F 74% 30.01 in 10.0 mi SSW 10.4 mph - N/A   Clear
1:54 PM 76.8 °F 68.0 °F 74% 30.00 in 10.0 mi SSW 11.5 mph - N/A   Clear
2:15 PM 77.5 °F 68.5 °F 74% 29.99 in 10.0 mi SSW 9.2 mph 16.1 mph N/A   Clear
2:34 PM 79.0 °F 68.4 °F 70% 29.98 in 10.0 mi SSW 17.3 mph 20.7 mph N/A   Clear
2:55 PM 79.7 °F 68.5 °F 69% 29.98 in 10.0 mi SSW 13.8 mph 21.9 mph N/A   Clear
3:15 PM 78.6 °F 68.2 °F 70% 29.98 in 10.0 mi SSW 16.1 mph - N/A   Scattered Clouds
3:34 PM 78.6 °F 68.4 °F 71% 29.98 in 10.0 mi South 12.7 mph 20.7 mph N/A   Scattered Clouds
3:55 PM 79.5 °F 69.1 °F 70% 29.98 in 10.0 mi SW 12.7 mph 19.6 mph N/A   Scattered Clouds
4:14 PM 79.9 °F 69.1 °F 69% 29.98 in 10.0 mi SSW 10.4 mph - N/A   Clear
4:35 PM 78.8 °F 69.3 °F 72% 29.97 in 10.0 mi SSW 11.5 mph - N/A   Clear
4:54 PM 77.9 °F 69.1 °F 74% 29.97 in 10.0 mi South 6.9 mph - N/A   Scattered Clouds
5:14 PM 79.0 °F 69.6 °F 73% 29.96 in 10.0 mi South 12.7 mph 16.1 mph N/A   Scattered Clouds
5:35 PM 79.9 °F 69.8 °F 71% 29.96 in 10.0 mi SSW 13.8 mph - N/A   Clear
5:54 PM 79.0 °F 69.4 °F 72% 29.96 in 10.0 mi SSW 13.8 mph - N/A   Clear
6:15 PM 79.2 °F 69.6 °F 72% 29.96 in 10.0 mi South 12.7 mph 16.1 mph N/A   Clear
6:35 PM 77.4 °F 68.9 °F 75% 29.96 in 10.0 mi SSW 11.5 mph 16.1 mph N/A   Clear
6:54 PM 78.3 °F 69.1 °F 73% 29.96 in 10.0 mi South 11.5 mph - N/A   Clear
7:15 PM 76.3 °F 68.7 °F 77% 29.96 in 10.0 mi South 6.9 mph 10.4 mph N/A   Clear
7:34 PM 74.7 °F 68.0 °F 80% 29.96 in 10.0 mi SSW 6.9 mph - N/A   Clear
7:55 PM 74.1 °F 68.0 °F 81% 29.96 in 10.0 mi SSW 9.2 mph - N/A   Clear
8:15 PM 73.2 °F 67.6 °F 83% 29.96 in 10.0 mi SSW 11.5 mph - N/A   Clear
8:34 PM 72.7 °F 67.5 °F 84% 29.96 in 10.0 mi SSW 9.2 mph - N/A   Clear
8:55 PM 72.9 °F 67.3 °F 83% 29.95 in 10.0 mi SSW 10.4 mph 16.1 mph N/A   Clear
9:14 PM 72.5 °F 67.1 °F 83% 29.95 in 10.0 mi SSW 10.4 mph - N/A   Clear
9:35 PM 72.5 °F 67.1 °F 83% 29.96 in 10.0 mi South 10.4 mph - N/A   Clear
9:55 PM 72.1 °F 67.1 °F 84% 29.97 in 10.0 mi South 10.4 mph - N/A   Scattered Clouds
10:14 PM 71.4 °F 67.3 °F 87% 29.96 in 10.0 mi South 8.1 mph - N/A Rain Light Rain
10:35 PM 71.2 °F 67.1 °F 87% 29.97 in 10.0 mi South 8.1 mph - N/A   Scattered Clouds
10:54 PM 71.6 °F 67.1 °F 86% 29.96 in 10.0 mi SSW 9.2 mph - N/A   Clear
11:14 PM 71.6 °F 67.1 °F 86% 29.95 in 10.0 mi South 9.2 mph - N/A   Clear
11:35 PM 71.8 °F 67.1 °F 85% 29.95 in 10.0 mi SSW 6.9 mph - N/A   Clear
11:54 PM 72.1 °F 67.5 °F 85% 29.94 in 10.0 mi SSW 11.5 mph - N/A   Clear